Location: McCloud Nature Park
(39.8272°N, 86.6824°W)
Time: 11:24:32
(UTC-05:00)

Amateur Radio Satellites - All Passes

Search period start: 02 August 2015 10:54
Search period end: 03 August 2015 10:54
Location: McCloud Nature Park, 39.8272°N, 86.6824°W

Satellite Date Start Highest point End Downlink Frequencies (MHz)
Time Altitude Azimuth
VELOX 1 02 Aug 10:59:23 11:02:26 19° 92° (E) 11:05:37 145.980
ZACube-1 02 Aug 11:12:05 11:16:29 47° 286° (WNW) 11:20:53 437.345
POLYITAN 1 02 Aug 11:12:27 11:16:39 88° 255° (WSW) 11:20:53 437.675
50 SAT 02 Aug 11:15:00 11:18:36 33° 97° (E) 11:22:12 437.505
COMPASS 1 02 Aug 11:15:23 11:16:31 11° 296° (WNW) 11:17:25 437.405
ESTCUBE 1 02 Aug 11:16:00 11:19:18 20° 93° (E) 11:22:43 437.505/2401.250
AIST 1 02 Aug 11:18:56 11:22:21 23° 90° (E) 11:25:51
BUGSAT 1 02 Aug 11:26:13 11:30:16 79° 76° (ENE) 11:34:18 437.445
POPSAT HIP 1 02 Aug 11:29:05 11:33:13 57° 260° (W) 11:37:22 437.405
DELFI C3 02 Aug 11:30:26 11:33:46 24° 290° (WNW) 11:37:00 145.870
FUNcube-1 02 Aug 11:33:32 11:37:30 29° 290° (WNW) 11:41:26 145.935
UNISAT 6 02 Aug 11:33:34 11:36:55 21° 268° (W) 11:40:13 437.425
QB50P2 02 Aug 11:37:14 11:41:16 44° 262° (W) 11:45:19 145.880/145.840
UWE-3 02 Aug 11:39:42 11:43:10 21° 292° (WNW) 11:46:32 435.000/436.395/437.385
UKube-1 02 Aug 11:45:08 11:49:29 84° 284° (WNW) 11:53:48 .
Oscar 11 02 Aug 11:45:31 11:47:51 14° 294° (WNW) 11:50:00 145.826/435.025
HUMSAT D 02 Aug 11:48:11 11:52:19 44° 287° (WNW) 11:56:26 437.325/437.525
YUBILEINY 02 Aug 11:49:34 11:58:27 89° 77° (ENE) 12:07:18 435.215
O/OREOS (USA 219) 02 Aug 11:51:34 11:56:00 48° 253° (WSW) 12:00:24 437.305
AISAT 02 Aug 11:56:09 12:00:35 85° 103° (ESE) 12:05:00 437.250
CUBEBUG 2 02 Aug 11:59:48 12:01:17 11° 296° (WNW) 12:02:32 437.445
HO-68 02 Aug 11:59:58 12:02:14 11° 308° (NW) 12:04:02 435.675
DUCHIFAT 1 02 Aug 12:00:53 12:04:25 26° 265° (W) 12:07:55 145.980
QB50P1 02 Aug 12:05:28 12:08:49 22° 266° (W) 12:12:05 145.935-145.965
NANOSAT C BR1 02 Aug 12:06:08 12:09:29 22° 266° (W) 12:12:44 145.865
CUBEBUG 1 02 Aug 12:06:10 12:10:27 61° 101° (E) 12:14:44 437.445
DX 1 02 Aug 12:15:40 12:19:38 35° 289° (WNW) 12:23:33 434.975-435.025
Oscar 19 02 Aug 12:17:37 12:21:10 20° 65° (ENE) 12:24:54 437.125/150
Cosmos 2491 02 Aug 12:22:11 12:30:56 77° 94° (E) 12:39:41 435.465 / 435.565
Cosmos 2504 02 Aug 12:31:13 12:37:25 23° 65° (ENE) 12:44:03 435.465 / 435.565
VELOX 1 02 Aug 12:35:04 12:39:09 37° 288° (WNW) 12:43:11 145.980
SPROUT 02 Aug 12:37:01 12:41:02 38° 97° (E) 12:45:05 437.525
TISAT 1 02 Aug 12:43:40 12:47:14 27° 95° (E) 12:50:52 437.305
50 SAT 02 Aug 12:50:09 12:52:57 18° 292° (WNW) 12:55:37 437.505
ESTCUBE 1 02 Aug 12:52:12 12:56:18 35° 289° (WNW) 13:00:21 437.505/2401.250
AIST 1 02 Aug 12:56:11 12:59:55 26° 286° (WNW) 13:03:34
AO-7 02 Aug 13:18:48 13:19:46 10° 44° (NE) 13:21:17 29.400- 29.500
Gurwin Techsat 1B 02 Aug 13:26:59 13:31:22 28° 67° (ENE) 13:35:52 435.225
ITAMSAT 1 02 Aug 13:40:36 13:45:09 32° 69° (ENE) 13:49:48 435.822/435.867
CUBEBUG 1 02 Aug 13:44:27 13:46:21 12° 295° (WNW) 13:48:03 437.445
YUBILEINY 02 Aug 13:48:45 13:54:13 17° 281° (W) 13:59:09 435.215
Oscar 19 02 Aug 13:55:15 14:00:12 49° 261° (W) 14:05:11 437.125/150
BEESAT 02 Aug 13:58:56 14:03:05 30° 96° (E) 14:07:17 436.000
SPROUT 02 Aug 14:13:51 14:16:52 18° 293° (WNW) 14:19:44 437.525
JAS-2 02 Aug 14:17:05 14:22:29 33° 64° (ENE) 14:28:34 435.910
SWISSCUBE 02 Aug 14:19:22 14:24:02 53° 100° (E) 14:28:42 437.505
TISAT 1 02 Aug 14:19:29 14:22:55 24° 291° (WNW) 14:26:17 437.305
Cosmos 2504 02 Aug 14:22:06 14:30:35 77° 265° (W) 14:39:10 435.465 / 435.565
Cosmos 2491 02 Aug 14:22:14 14:28:54 22° 296° (WNW) 14:35:11 435.465 / 435.565
DANDE 02 Aug 14:22:48 14:25:01 15° 74° (ENE) 14:27:47 436.750
CUSAT 1 02 Aug 14:31:09 14:35:04 32° 78° (ENE) 14:40:08 437.405
HORYU 2 02 Aug 14:33:46 14:35:34 13° 64° (ENE) 14:37:35 437.375
ITUPSAT 1 02 Aug 14:41:01 14:45:49 81° 103° (ESE) 14:50:35 437.325
AO-7 02 Aug 15:02:52 15:10:44 49° 65° (ENE) 15:18:41 29.400- 29.500
Gurwin Techsat 1B 02 Aug 15:06:19 15:11:13 37° 263° (W) 15:16:06 435.225
ITAMSAT 1 02 Aug 15:20:05 15:24:40 30° 265° (W) 15:29:11 435.822/435.867
STARS 02 Aug 15:33:17 15:37:06 28° 96° (E) 15:40:58 437.465
BEESAT 02 Aug 15:36:48 15:40:53 28° 291° (WNW) 15:44:51 436.000
SWISSCUBE 02 Aug 15:58:27 16:01:30 17° 295° (WNW) 16:04:22 437.505
JAS-2 02 Aug 16:01:38 16:07:23 42° 265° (W) 16:13:49 435.910
KKS-1 02 Aug 16:03:31 16:08:00 77° 284° (WNW) 16:12:28 437.445
DANDE 02 Aug 16:04:15 16:08:05 43° 262° (W) 16:13:05 436.750
HORYU 2 02 Aug 16:07:18 16:11:43 64° 259° (WSW) 16:16:11 437.375
PCSat 02 Aug 16:12:51 16:13:29 10° 36° (NE) 16:14:21 145.827
CUSAT 1 02 Aug 16:13:48 16:17:34 25° 264° (W) 16:22:05 437.405
Cosmos 2504 02 Aug 16:17:27 16:21:39 14° 282° (WNW) 16:25:16 435.465 / 435.565
ITUPSAT 1 02 Aug 16:21:27 16:23:06 11° 298° (WNW) 16:24:30 437.325
GONETS M04 02 Aug 16:31:21 16:39:24 41° 72° (ENE) 16:47:35
VERMONT LUNAR 02 Aug 16:47:18 16:49:13 15° 149° (SSE) 16:51:10 437.305
AO-7 02 Aug 16:56:02 17:03:43 38° 263° (W) 17:11:17 29.400- 29.500
SO-50 02 Aug 16:57:39 17:01:39 24° 45° (NE) 17:05:40 436.795
CUTE-I 02 Aug 16:59:53 17:03:17 18° 64° (ENE) 17:06:52 437.470
MOZHAYETS 4 02 Aug 17:05:18 17:09:53 59° 100° (E) 17:14:25
Cosmos 2499 02 Aug 17:09:10 17:14:30 18° 61° (ENE) 17:20:23 435.465 / 435.565
STARS 02 Aug 17:09:47 17:13:27 25° 291° (WNW) 17:17:03 437.465
Cubesat XI-IV 02 Aug 17:42:30 17:47:31 43° 70° (ENE) 17:52:35 437.490
PCSat 02 Aug 17:52:55 17:58:15 55° 57° (ENE) 18:03:34 145.827
VERMONT LUNAR 02 Aug 18:22:26 18:25:33 60° 163° (SSE) 18:28:42 437.305
GONETS M04 02 Aug 18:28:14 18:36:19 42° 272° (W) 18:44:16
STRAND 1 02 Aug 18:37:01 18:39:18 13° 89° (E) 18:41:52 437.568
CUTE-I 02 Aug 18:37:36 18:42:55 61° 259° (W) 18:48:14 437.470
SO-50 02 Aug 18:37:42 18:42:28 48° 244° (WSW) 18:47:05 436.795
MOZHAYETS 4 02 Aug 18:44:06 18:46:40 14° 295° (WNW) 18:49:00
HO-68 02 Aug 18:51:25 18:55:53 19° 57° (ENE) 19:00:38 435.675
Cosmos 2499 02 Aug 19:00:20 19:09:10 84° 82° (E) 19:18:04 435.465 / 435.565
PHONESAT 2.4 02 Aug 19:03:19 19:06:11 24° 152° (SSE) 19:09:06 2401.200-2431.200
CUBESAT XI-V 02 Aug 19:03:50 19:08:28 89° 102° (ESE) 19:13:04 437.345
CUTE 1.7 + AOD 2 02 Aug 19:18:25 19:19:37 11° 65° (ENE) 19:21:04 437.475
Cubesat XI-IV 02 Aug 19:23:31 19:27:50 24° 267° (W) 19:32:01 437.490
CANX-2 02 Aug 19:25:45 19:28:10 15° 67° (ENE) 19:30:47 2200.000
RS-15 02 Aug 19:26:31 19:32:24 17° 100° (E) 19:39:11 29.354- 29.394
PRISM 02 Aug 19:26:35 19:30:15 31° 97° (E) 19:33:55 437.425
DOVE 4 02 Aug 19:26:54 19:29:30 17° 68° (ENE) 19:32:14 437.250
PCSat 02 Aug 19:37:22 19:41:17 20° 253° (WSW) 19:45:01 145.827
BRITE-PL 02 Aug 19:42:42 19:47:04 78° 77° (ENE) 19:51:16 437.365/2234.400
GOMX 1 02 Aug 19:45:09 19:49:10 45° 74° (ENE) 19:53:10 467.674
VERMONT LUNAR 02 Aug 19:59:06 20:02:17 76° 360° (N) 20:05:27 437.305
STRAND 1 02 Aug 20:14:00 20:19:06 67° 286° (WNW) 20:24:08 437.568
ISS 02 Aug 20:14:44 20:17:50 45° 138° (SE) 20:20:59 145.825
COMPASS 1 02 Aug 20:27:25 20:31:22 40° 72° (ENE) 20:35:21 437.405
ZACube-1 02 Aug 20:34:13 20:35:25 11° 64° (ENE) 20:36:52 437.345
HO-68 02 Aug 20:35:40 20:42:49 87° 254° (WSW) 20:50:02 435.675
PHONESAT 2.4 02 Aug 20:40:23 20:43:53 78° 168° (SSE) 20:47:25 2401.200-2431.200
DELFI C3 02 Aug 20:42:50 20:45:05 15° 67° (ENE) 20:47:29 145.870
SEEDS 02 Aug 20:45:02 20:49:16 84° 77° (ENE) 20:53:34 437.485
CUTE 1.7 + AOD 2 02 Aug 20:50:47 20:55:02 66° 259° (W) 20:59:19 437.475
FUNcube-1 02 Aug 20:53:21 20:56:08 18° 67° (ENE) 20:59:07 145.935
Cosmos 2499 02 Aug 20:55:23 21:01:26 20° 279° (W) 21:07:04 435.465 / 435.565
CINEMA 3 02 Aug 20:59:07 21:03:15 80° 77° (ENE) 21:07:31 145.822/145.860
UWE-3 02 Aug 20:59:28 21:03:01 28° 70° (ENE) 21:06:42 435.000/436.395/437.385
CANX-2 02 Aug 20:59:38 21:03:45 46° 262° (W) 21:07:54 2200.000
Oscar 11 02 Aug 21:01:48 21:05:47 38° 72° (ENE) 21:09:50 145.826/435.025
PRISM 02 Aug 21:02:27 21:05:30 20° 292° (WNW) 21:08:27 437.425
DOVE 4 02 Aug 21:03:11 21:07:02 37° 263° (W) 21:10:54 437.250
AAUSAT CUBESAT 2 02 Aug 21:07:00 21:11:12 82° 256° (WSW) 21:15:27 437.432
HUMSAT D 02 Aug 21:07:14 21:07:38 10° 64° (ENE) 21:08:17 437.325/437.525
CUBEBUG 2 02 Aug 21:18:07 21:22:13 58° 75° (ENE) 21:26:27 437.445
GOMX 1 02 Aug 21:25:32 21:27:40 13° 270° (W) 21:29:34 467.674
RS-15 02 Aug 21:32:19 21:43:11 81° 120° (ESE) 21:54:31 29.354- 29.394
DX 1 02 Aug 21:35:42 21:38:23 17° 66° (ENE) 21:41:12 434.975-435.025
VERMONT LUNAR 02 Aug 21:35:51 21:39:01 63° 195° (SSW) 21:42:08 437.305
M-CUBED/EXP-1 PRIME 02 Aug 21:49:32 21:53:28 26° 98° (E) 21:57:22 437.505
ISS 02 Aug 21:51:41 21:54:24 24° 335° (NNW) 21:57:08 145.825
VELOX 1 02 Aug 21:56:54 21:59:34 17° 66° (ENE) 22:02:25 145.980
50 SAT 02 Aug 21:58:51 22:01:23 17° 68° (ENE) 22:04:03 437.505
COMPASS 1 02 Aug 22:04:33 22:07:15 16° 269° (W) 22:09:47 437.405
ZACube-1 02 Aug 22:07:05 22:11:16 65° 260° (W) 22:15:33 437.345
ESTCUBE 1 02 Aug 22:15:22 22:18:27 19° 67° (ENE) 22:21:39 437.505/2401.250
DELFI C3 02 Aug 22:15:57 22:19:49 43° 262° (W) 22:23:43 145.870
AUBIESAT-1 02 Aug 22:16:46 22:21:15 42° 102° (ESE) 22:25:35 437.475
PHONESAT 2.4 02 Aug 22:18:23 22:21:54 80° 2° (N) 22:25:26 2401.200-2431.200
BEESAT 2 02 Aug 22:25:22 22:28:08 18° 112° (ESE) 22:31:02 435.950
HO-68 02 Aug 22:28:00 22:31:42 14° 273° (W) 22:34:53 435.675
FUNcube-1 02 Aug 22:28:17 22:32:12 37° 263° (W) 22:36:12 145.935
TIGRISAT 02 Aug 22:31:20 22:34:56 22° 93° (E) 22:38:39 435.000
ANTELSAT 02 Aug 22:33:48 22:37:36 24° 94° (E) 22:41:29 437.575/2403.000
Cosmos 2491 02 Aug 22:33:53 22:41:42 37° 71° (ENE) 22:49:39 435.465 / 435.565
UWE-3 02 Aug 22:36:09 22:39:34 23° 267° (W) 22:42:57 435.000/436.395/437.385
HUMSAT D 02 Aug 22:38:42 22:42:50 70° 259° (W) 22:47:02 437.325/437.525
UKube-1 02 Aug 22:38:54 22:43:12 74° 75° (ENE) 22:47:32 .
Oscar 11 02 Aug 22:39:05 22:42:09 18° 268° (W) 22:45:05 145.826/435.025
AISAT 02 Aug 22:52:55 22:57:17 69° 75° (ENE) 23:01:40 437.250
YUBILEINY 02 Aug 22:56:06 23:01:47 21° 81° (E) 23:07:56 435.215
CUBEBUG 2 02 Aug 22:58:13 22:59:26 11° 272° (W) 23:00:24 437.445
POLYITAN 1 02 Aug 22:59:42 23:02:18 16° 91° (E) 23:05:05 437.675
BEESAT 3 02 Aug 23:01:07 23:05:06 60° 119° (ESE) 23:09:09 437.485
CUBEBUG 1 02 Aug 23:01:27 23:05:35 45° 73° (ENE) 23:09:45 437.445
AIST 1 02 Aug 23:03:14 23:07:29 66° 80° (E) 23:11:42
DX 1 02 Aug 23:10:10 23:14:19 44° 261° (W) 23:18:28 434.975-435.025
BUGSAT 1 02 Aug 23:11:03 23:12:28 12° 90° (E) 23:14:06 437.445
VERMONT LUNAR 02 Aug 23:13:17 23:15:22 16° 211° (SSW) 23:17:23 437.305
POPSAT HIP 1 02 Aug 23:15:21 23:18:46 23° 94° (E) 23:22:15 437.405
QB50P2 02 Aug 23:23:16 23:27:00 30° 96° (E) 23:30:48 145.880/145.840
M-CUBED/EXP-1 PRIME 02 Aug 23:23:54 23:28:16 35° 295° (WNW) 23:32:29 437.505
UNISAT 6 02 Aug 23:24:35 23:29:19 84° 106° (ESE) 23:34:03 437.425
SPROUT 02 Aug 23:30:41 23:34:16 27° 70° (ENE) 23:37:55 437.525
ISS 02 Aug 23:30:48 23:31:45 11° 355° (N) 23:32:41 145.825
VELOX 1 02 Aug 23:31:34 23:35:48 45° 261° (W) 23:40:03 145.980
50 SAT 02 Aug 23:32:11 23:35:43 33° 263° (W) 23:39:17 437.505
TISAT 1 02 Aug 23:35:40 23:38:35 19° 68° (ENE) 23:41:37 437.305
DUCHIFAT 1 02 Aug 23:45:21 23:49:29 50° 99° (E) 23:53:37 145.980
RS-15 02 Aug 23:47:15 23:57:02 34° 325° (NW) 00:07:01 29.354- 29.394
QB50P1 02 Aug 23:50:03 23:54:16 60° 100° (E) 23:58:29 145.935-145.965
NANOSAT C BR1 02 Aug 23:50:29 23:54:42 59° 100° (E) 23:58:54 145.865
ESTCUBE 1 02 Aug 23:50:44 23:55:02 42° 262° (W) 23:59:20 437.505/2401.250
AUBIESAT-1 02 Aug 23:51:59 23:55:40 22° 298° (WNW) 23:59:08 437.475
PHONESAT 2.4 02 Aug 23:56:25 23:59:49 48° 201° (SSW) 00:03:12 2401.200-2431.200
BEESAT 2 03 Aug 00:02:02 00:05:55 39° 307° (NW) 00:09:49 435.950
TIGRISAT 03 Aug 00:07:27 00:11:47 36° 289° (WNW) 00:16:04 435.000
AIST 2 03 Aug 00:09:27 00:13:35 54° 118° (ESE) 00:17:45 435.215
ANTELSAT 03 Aug 00:10:11 00:14:24 33° 290° (WNW) 00:18:36 437.575/2403.000
O/OREOS (USA 219) 03 Aug 00:24:56 00:28:11 20° 102° (ESE) 00:31:34 437.305
Cosmos 2491 03 Aug 00:30:34 00:38:48 48° 271° (W) 00:46:56 435.465 / 435.565
POLYITAN 1 03 Aug 00:34:22 00:38:25 41° 288° (WNW) 00:42:27 437.675
CUBEBUG 1 03 Aug 00:39:38 00:42:14 15° 269° (W) 00:44:40 437.445
BEESAT 3 03 Aug 00:40:56 00:43:27 15° 317° (NW) 00:45:52 437.485
BUGSAT 1 03 Aug 00:44:19 00:48:17 51° 286° (WNW) 00:52:16 437.445
YUBILEINY 03 Aug 00:49:01 00:57:45 78° 279° (W) 01:06:33 435.215
POPSAT HIP 1 03 Aug 00:50:56 00:54:38 28° 290° (WNW) 00:58:15 437.405
QB50P2 03 Aug 00:59:23 01:02:46 23° 291° (WNW) 01:06:04 145.880/145.840
UNISAT 6 03 Aug 01:04:16 01:05:29 11° 297° (WNW) 01:06:25 437.425
BEESAT 03 Aug 01:04:41 01:08:53 32° 70° (ENE) 01:13:10 436.000
Cosmos 2504 03 Aug 01:04:57 01:07:36 13° 78° (ENE) 01:10:52 435.465 / 435.565
SPROUT 03 Aug 01:06:49 01:10:20 24° 266° (W) 01:13:47 437.525
ISS 03 Aug 01:07:28 01:09:17 14° 15° (NNE) 01:11:07 145.825
TISAT 1 03 Aug 01:10:20 01:14:09 34° 263° (W) 01:17:57 437.305
DUCHIFAT 1 03 Aug 01:22:33 01:24:55 14° 294° (WNW) 01:27:06 145.980
SWISSCUBE 03 Aug 01:25:00 01:29:42 56° 73° (ENE) 01:34:25 437.505
QB50P1 03 Aug 01:27:51 01:29:41 12° 295° (WNW) 01:31:20 145.935-145.965
NANOSAT C BR1 03 Aug 01:28:14 01:30:05 12° 295° (WNW) 01:31:44 145.865
PHONESAT 2.4 03 Aug 01:35:50 01:37:18 12° 214° (SW) 01:38:41 2401.200-2431.200
Gurwin Techsat 1B 03 Aug 01:46:29 01:47:14 10° 86° (E) 01:48:23 435.225
ITUPSAT 1 03 Aug 01:46:50 01:51:40 85° 74° (ENE) 01:56:31 437.325
AIST 2 03 Aug 01:49:33 01:52:30 18° 316° (NW) 01:55:22 435.215
ITAMSAT 1 03 Aug 01:56:26 01:57:47 11° 87° (E) 01:59:30 435.822/435.867
O/OREOS (USA 219) 03 Aug 02:03:15 02:07:23 35° 298° (WNW) 02:11:33 437.305
RS-15 03 Aug 02:06:53 02:14:24 19° 359° (N) 02:22:07 29.354- 29.394
Oscar 19 03 Aug 02:07:15 02:12:24 62° 101° (E) 02:17:33 437.125/150
STARS 03 Aug 02:29:48 02:33:14 24° 68° (ENE) 02:36:45 437.465
BEESAT 03 Aug 02:42:45 02:46:46 26° 266° (W) 02:50:43 436.000
ISS 03 Aug 02:43:06 02:46:18 52° 34° (NNE) 02:49:30 145.825
YUBILEINY 03 Aug 02:51:26 02:56:24 15° 302° (WNW) 03:00:49 435.215
Cosmos 2504 03 Aug 02:51:27 02:58:35 84° 97° (E) 03:06:18 435.465 / 435.565
KKS-1 03 Aug 03:00:41 03:05:06 87° 76° (ENE) 03:09:33 437.445
SWISSCUBE 03 Aug 03:05:13 03:07:58 15° 270° (W) 03:10:30 437.505
AO-7 03 Aug 03:07:55 03:11:27 14° 86° (E) 03:15:37 29.400- 29.500
JAS-2 03 Aug 03:10:57 03:18:00 36° 93° (E) 03:24:59 435.910
Gurwin Techsat 1B 03 Aug 03:22:41 03:28:02 87° 284° (WNW) 03:33:21 435.225
ITAMSAT 1 03 Aug 03:32:49 03:38:01 80° 285° (WNW) 03:43:11 435.822/435.867
DANDE 03 Aug 03:36:27 03:37:23 11° 96° (E) 03:38:25 436.750
CUSAT 1 03 Aug 03:40:17 03:42:31 22° 96° (E) 03:44:39 437.405
Oscar 19 03 Aug 03:48:00 03:51:18 17° 296° (WNW) 03:54:24 437.125/150
HORYU 2 03 Aug 03:59:40 04:03:23 25° 95° (E) 04:07:10 437.375
STARS 03 Aug 04:05:41 04:09:33 30° 264° (W) 04:13:23 437.465
MOZHAYETS 4 03 Aug 04:06:16 04:10:44 50° 73° (ENE) 04:15:15
ISS 03 Aug 04:20:22 04:22:29 16° 229° (SW) 04:24:31 145.825
RS-15 03 Aug 04:22:03 04:32:00 32° 33° (NNE) 04:42:32 29.354- 29.394
Cosmos 2504 03 Aug 04:47:24 04:52:06 17° 299° (WNW) 04:56:35 435.465 / 435.565
JAS-2 03 Aug 04:55:40 05:03:10 49° 291° (WNW) 05:10:27 435.910
AO-7 03 Aug 04:57:22 05:05:45 78° 106° (ESE) 05:14:03 29.400- 29.500
Gurwin Techsat 1B 03 Aug 05:05:28 05:07:19 11° 300° (WNW) 05:08:51 435.225
ITAMSAT 1 03 Aug 05:16:20 05:16:46 10° 301° (WNW) 05:16:53 435.822/435.867
DANDE 03 Aug 05:18:18 05:20:24 17° 284° (WNW) 05:22:16 436.750
GONETS M04 03 Aug 05:31:19 05:39:28 48° 90° (E) 05:47:43
HORYU 2 03 Aug 05:36:05 05:40:01 29° 290° (WNW) 05:43:52 437.375
MOZHAYETS 4 03 Aug 05:45:27 05:48:18 15° 270° (W) 05:50:58
STRAND 1 03 Aug 05:51:47 05:55:21 20° 65° (ENE) 05:59:04 437.568
Cubesat XI-IV 03 Aug 06:01:32 06:04:56 18° 90° (E) 06:08:32 437.490
CUBESAT XI-V 03 Aug 06:06:07 06:10:48 79° 76° (ENE) 06:15:29 437.345
PRISM 03 Aug 06:16:11 06:19:24 22° 68° (ENE) 06:22:42 437.425
RS-15 03 Aug 06:34:26 06:46:18 89° 60° (ENE) 06:58:35 29.354- 29.394
BEESAT 2 03 Aug 06:45:21 06:46:52 12° 40° (NE) 06:48:31 435.950
AO-7 03 Aug 06:51:23 06:57:48 25° 304° (NW) 07:03:55 29.400- 29.500
CUTE-I 03 Aug 06:55:27 07:00:41 57° 100° (E) 07:05:55 437.470
BEESAT 3 03 Aug 07:20:29 07:24:02 29° 50° (NE) 07:27:34 437.485
GONETS M04 03 Aug 07:28:40 07:36:35 36° 289° (WNW) 07:44:20
STRAND 1 03 Aug 07:29:13 07:34:13 50° 260° (W) 07:39:13 437.568
Cosmos 2499 03 Aug 07:35:48 07:43:08 69° 93° (E) 07:51:07 435.465 / 435.565
Cubesat XI-IV 03 Aug 07:40:15 07:45:28 55° 288° (WNW) 07:50:38 437.490
BRITE-PL 03 Aug 07:47:39 07:51:20 25° 95° (E) 07:55:19 437.365/2234.400
GOMX 1 03 Aug 07:47:50 07:50:30 15° 91° (E) 07:53:28 467.674
PRISM 03 Aug 07:51:01 07:54:42 29° 264° (W) 07:58:21 437.425
HO-68 03 Aug 08:05:48 08:10:20 18° 89° (E) 08:15:14 435.675
BEESAT 2 03 Aug 08:21:27 08:25:32 84° 240° (WSW) 08:29:33 435.950
SEEDS 03 Aug 08:31:29 08:33:51 15° 90° (E) 08:36:24 437.485
AIST 2 03 Aug 08:32:04 08:35:45 29° 49° (NE) 08:39:24 435.215
PCSat 03 Aug 08:33:37 08:38:54 59° 115° (ESE) 08:44:15 145.827
M-CUBED/EXP-1 PRIME 03 Aug 08:36:42 08:40:10 27° 63° (ENE) 08:43:57 437.505
CUTE-I 03 Aug 08:36:42 08:40:22 19° 296° (WNW) 08:43:51 437.470
CUTE 1.7 + AOD 2 03 Aug 08:37:22 08:40:41 22° 93° (E) 08:44:05 437.475
CANX-2 03 Aug 08:45:46 08:49:35 30° 96° (E) 08:53:23 2200.000
RS-15 03 Aug 08:48:43 08:57:38 24° 257° (WSW) 09:06:01 29.354- 29.394
SO-50 03 Aug 08:50:43 08:55:24 69° 119° (ESE) 09:00:17 436.795
AAUSAT CUBESAT 2 03 Aug 08:51:47 08:54:25 17° 91° (E) 08:57:11 437.432
CINEMA 3 03 Aug 08:54:42 08:58:19 22° 93° (E) 09:02:09 145.822/145.860
BEESAT 3 03 Aug 08:58:34 09:01:53 24° 247° (WSW) 09:05:05 437.485
DOVE 4 03 Aug 09:01:28 09:06:06 56° 100° (E) 09:10:59 437.250
AUBIESAT-1 03 Aug 09:03:14 09:07:09 44° 67° (ENE) 09:11:24 437.475
CUBEBUG 2 03 Aug 09:10:59 09:13:28 15° 90° (E) 09:16:12 437.445
GOMX 1 03 Aug 09:24:27 09:28:54 52° 286° (WNW) 09:33:40 467.674
BRITE-PL 03 Aug 09:26:00 09:29:54 30° 288° (WNW) 09:33:57 437.365/2234.400
TIGRISAT 03 Aug 09:30:13 09:33:01 17° 66° (ENE) 09:36:01 435.000
Cosmos 2499 03 Aug 09:31:27 09:37:16 22° 296° (WNW) 09:43:06 435.465 / 435.565
ANTELSAT 03 Aug 09:32:46 09:35:49 19° 67° (ENE) 09:39:04 437.575/2403.000
COMPASS 1 03 Aug 09:46:41 09:50:56 87° 102° (ESE) 09:55:08 437.405
HO-68 03 Aug 09:51:42 09:58:54 78° 288° (WNW) 10:06:05 435.675
POLYITAN 1 03 Aug 09:53:29 09:54:54 12° 65° (ENE) 09:56:32 437.675
DELFI C3 03 Aug 09:55:54 09:59:15 25° 94° (E) 10:02:37 145.870
ZACube-1 03 Aug 09:56:33 10:00:22 26° 94° (E) 10:04:16 437.345
SEEDS 03 Aug 10:05:51 10:09:55 43° 287° (WNW) 10:13:56 437.485
POPSAT HIP 1 03 Aug 10:08:14 10:10:52 17° 67° (ENE) 10:13:38 437.405
AIST 2 03 Aug 10:10:42 10:14:14 26° 247° (WSW) 10:17:39 435.215
M-CUBED/EXP-1 PRIME 03 Aug 10:11:24 10:14:54 27° 262° (W) 10:18:35 437.505
CUTE 1.7 + AOD 2 03 Aug 10:12:51 10:16:38 30° 289° (WNW) 10:20:21 437.475
QB50P2 03 Aug 10:15:58 10:19:06 21° 68° (ENE) 10:22:21 145.880/145.840
FUNcube-1 03 Aug 10:16:47 10:21:06 42° 98° (E) 10:25:28 145.935
PCSat 03 Aug 10:18:34 10:22:46 22° 314° (NW) 10:26:53 145.827
CANX-2 03 Aug 10:21:58 10:25:21 22° 291° (WNW) 10:28:37 2200.000
UNISAT 6 03 Aug 10:22:43 10:27:02 66° 75° (ENE) 10:31:30 437.425
HUMSAT D 03 Aug 10:24:03 10:27:14 20° 93° (E) 10:30:31 437.325/437.525
UWE-3 03 Aug 10:25:15 10:29:53 71° 102° (ESE) 10:34:34 435.000/436.395/437.385
Oscar 11 03 Aug 10:25:27 10:29:50 87° 102° (ESE) 10:34:11 145.826/435.025
AAUSAT CUBESAT 2 03 Aug 10:26:18 10:30:13 38° 288° (WNW) 10:34:04 437.432
UKube-1 03 Aug 10:28:56 10:30:47 13° 90° (E) 10:32:51 .
CINEMA 3 03 Aug 10:31:13 10:35:38 39° 288° (WNW) 10:40:08 145.822/145.860
SO-50 03 Aug 10:33:05 10:36:30 18° 319° (NW) 10:39:52 436.795
O/OREOS (USA 219) 03 Aug 10:34:25 10:38:39 36° 62° (ENE) 10:42:54 437.305
DUCHIFAT 1 03 Aug 10:37:03 10:40:46 33° 71° (ENE) 10:44:34 145.980
AUBIESAT-1 03 Aug 10:39:33 10:42:12 16° 266° (W) 10:44:48 437.475
DOVE 4 03 Aug 10:40:38 10:43:32 16° 293° (WNW) 10:46:20 437.250
QB50P1 03 Aug 10:42:02 10:45:56 39° 72° (ENE) 10:49:53 145.935-145.965
NANOSAT C BR1 03 Aug 10:42:16 10:46:08 39° 72° (ENE) 10:50:05 145.865
AISAT 03 Aug 10:45:52 10:48:01 14° 90° (E) 10:50:24 437.250
